Worthington, MN

12:23 PM CST on January 17, 2017 (GMT -0600)
Worthington Municipal

Weather History for KOTG - May, 2013

Change the Weather History Date:

Saturday, May 11, 2013

  Actual Average Record
Temperature  
Mean Temperature 44 °F -  
Max Temperature 53 °F 63 °F 92 °F (1987)
Min Temperature 35 °F 43 °F 27 °F (1981)
Degree Days  
Heating Degree Days 21    
Moisture  
Dew Point 23 °F    
Average Humidity 46    
Maximum Humidity 70    
Minimum Humidity 24    
Precipitation  
Precipitation 0.00 in - - ()
Sea Level Pressure  
Sea Level Pressure 30.20 in    
Wind  
Wind Speed 21 mph (NNW)    
Max Wind Speed 33 mph    
Max Gust Speed 43 mph    
Visibility 10 miles    
Events      
Averages and records for this station are not official NWS values.
T = Trace of Precipitation, MM = Missing Value Source: NWS Daily Summary

Daily Weather History Graph

Daily Weather History Graph

Search for Another Location

Airport or City:

Trip Planner

Search our weather history database for the weather conditions in past years. The results will help you decide how hot, cold, wet, or windy it might be!

Date:

Astronomy

May. 11, 2013 Rise Set
Actual Time 6:01 AM CDT 8:36 PM CDT
Civil Twilight 5:28 AM CDT 9:09 PM CDT
Nautical Twilight 4:47 AM CDT 9:50 PM CDT
Astronomical Twilight 4:01 AM CDT 10:37 PM CDT
Moon 7:09 AM CDT (5/11) 10:18 PM CDT (5/11)
Length of Visible Light 15h 40m
Length of Day
14h 35m
Waxing Crescent, 3% of the Moon is Illuminated
May 11
Waxing Crescent
May 17
First Quarter
May 24
Full
May 31
Last Quarter
Jun 8
New

Hourly Weather History & Observations

Time (CDT) Temp. Windchill Dew Point Humidity Pressure Visibility Wind Dir Wind Speed Gust Speed Precip Events Conditions
12:15 AM 51.8 °F - 37.4 °F 58% 30.06 in 10.0 mi NNW 21.9 mph 31.1 mph N/A   Mostly Cloudy
12:35 AM 50.0 °F - 33.8 °F 54% 30.07 in 10.0 mi NNW 24.2 mph 29.9 mph N/A   Scattered Clouds
12:55 AM 48.2 °F - 30.2 °F 50% 30.08 in 10.0 mi NNW 24.2 mph 28.8 mph N/A   Clear
1:15 AM 46.4 °F 38.5 °F 28.4 °F 50% 30.08 in 10.0 mi NNW 21.9 mph 27.6 mph N/A   Clear
1:35 AM 46.4 °F 39.2 °F 26.6 °F 46% 30.09 in 10.0 mi NNW 18.4 mph 25.3 mph N/A   Clear
1:55 AM 44.6 °F 36.4 °F 26.6 °F 49% 30.09 in 10.0 mi NNW 20.7 mph 24.2 mph N/A   Clear
2:15 AM 44.6 °F 37.2 °F 26.6 °F 49% 30.10 in 10.0 mi NNW 17.3 mph - N/A   Clear
2:35 AM 44.6 °F 37.2 °F 26.6 °F 49% 30.10 in 10.0 mi NNW 17.3 mph - N/A   Clear
2:55 AM 42.8 °F 35.1 °F 26.6 °F 53% 30.11 in 10.0 mi NNW 16.1 mph - N/A   Clear
3:15 AM 42.8 °F 35.4 °F 26.6 °F 53% 30.11 in 10.0 mi NNW 15.0 mph - N/A   Clear
3:35 AM 41.0 °F 33.1 °F 26.6 °F 57% 30.12 in 10.0 mi NNW 15.0 mph - N/A   Clear
3:55 AM 41.0 °F 33.1 °F 26.6 °F 57% 30.13 in 10.0 mi NW 15.0 mph - N/A   Clear
4:15 AM 39.2 °F 30.8 °F 28.4 °F 65% 30.13 in 10.0 mi NW 15.0 mph - N/A   Clear
4:35 AM 39.2 °F 31.2 °F 28.4 °F 65% 30.14 in 10.0 mi NW 13.8 mph - N/A   Clear
4:55 AM 39.2 °F 30.5 °F 28.4 °F 65% 30.14 in 10.0 mi NW 16.1 mph - N/A   Clear
5:15 AM 39.2 °F 31.2 °F 28.4 °F 65% 30.15 in 10.0 mi NW 13.8 mph - N/A   Clear
5:35 AM 37.4 °F 28.9 °F 28.4 °F 70% 30.16 in 10.0 mi NW 13.8 mph - N/A   Clear
5:55 AM 37.4 °F 29.3 °F 28.4 °F 70% 30.16 in 10.0 mi NW 12.7 mph - N/A   Clear
6:15 AM 37.4 °F 28.9 °F 28.4 °F 70% 30.16 in 10.0 mi NW 13.8 mph 19.6 mph N/A   Clear
6:35 AM 37.4 °F 28.2 °F 26.6 °F 65% 30.18 in 10.0 mi NNW 16.1 mph - N/A   Clear
6:55 AM 39.2 °F 30.2 °F 26.6 °F 61% 30.18 in 10.0 mi NNW 17.3 mph - N/A   Clear
7:15 AM 39.2 °F 30.5 °F 26.6 °F 61% 30.19 in 10.0 mi NNW 16.1 mph - N/A   Clear
7:35 AM 39.2 °F 29.3 °F 26.6 °F 61% 30.20 in 10.0 mi NNW 20.7 mph - N/A   Clear
7:55 AM 41.0 °F 31.6 °F 26.6 °F 57% 30.20 in 10.0 mi NNW 20.7 mph 24.2 mph N/A   Clear
8:15 AM 42.8 °F 33.8 °F 26.6 °F 53% 30.22 in 10.0 mi NNW 21.9 mph 29.9 mph N/A   Clear
8:35 AM - - - N/A% 30.21 in 10.0 mi NNW 26.5 mph 31.1 mph N/A   Clear
8:55 AM 44.6 °F 35.7 °F 28.4 °F 53% 30.23 in 10.0 mi NNW 24.2 mph 29.9 mph N/A   Clear
9:15 AM 44.6 °F 35.5 °F 28.4 °F 53% 30.23 in 10.0 mi NNW 25.3 mph 31.1 mph N/A   Partly Cloudy
9:35 AM 44.6 °F 35.5 °F 26.6 °F 49% 30.24 in 10.0 mi NNW 25.3 mph 35.7 mph N/A   Scattered Clouds
9:55 AM - - - N/A% 30.24 in 10.0 mi NNW 28.8 mph 39.1 mph N/A   Scattered Clouds
10:15 AM - - - N/A% 30.24 in 10.0 mi NNW 29.9 mph 39.1 mph N/A   Partly Cloudy
10:35 AM - - - N/A% 30.24 in 10.0 mi NNW 26.5 mph 41.4 mph N/A   Partly Cloudy
10:55 AM - - - N/A% 30.25 in 10.0 mi NNW 33.4 mph 39.1 mph N/A   Partly Cloudy
11:15 AM - - - N/A% 30.25 in 10.0 mi NNW 26.5 mph 36.8 mph N/A   Partly Cloudy
11:35 AM - - - N/A% 30.25 in 10.0 mi NNW 28.8 mph 36.8 mph N/A   Scattered Clouds
11:55 AM - - - N/A% 30.25 in 10.0 mi NNW 27.6 mph 36.8 mph N/A   Partly Cloudy
12:15 PM - - - N/A% 30.25 in 10.0 mi NW 26.5 mph 39.1 mph N/A   Scattered Clouds
12:35 PM - - - N/A% 30.26 in 10.0 mi NNW 31.1 mph 38.0 mph N/A   Partly Cloudy
12:55 PM - - - N/A% 30.25 in 10.0 mi NNW 27.6 mph 42.6 mph N/A   Clear
1:15 PM 50.0 °F - 21.2 °F 32% 30.26 in 10.0 mi NNW 27.6 mph 39.1 mph N/A   Partly Cloudy
1:35 PM - - - N/A% 30.25 in 10.0 mi NNW 27.6 mph 39.1 mph N/A   Partly Cloudy
1:55 PM - - - N/A% 30.25 in 10.0 mi NNW 31.1 mph 36.8 mph N/A   Partly Cloudy
2:15 PM - - - N/A% 30.25 in 10.0 mi NNW 32.2 mph 41.4 mph N/A   Partly Cloudy
2:35 PM - - - N/A% 30.24 in 10.0 mi NNW 26.5 mph 38.0 mph N/A   Clear
2:55 PM - - - N/A% 30.24 in 10.0 mi NW 26.5 mph 39.1 mph N/A   Clear
3:15 PM - - - N/A% 30.24 in 10.0 mi NNW 28.8 mph 40.3 mph N/A   Clear
3:35 PM 53.6 °F - 17.6 °F 24% 30.24 in 10.0 mi NW 21.9 mph 38.0 mph N/A   Clear
3:55 PM - - - N/A% 30.23 in 10.0 mi NW 32.2 mph 36.8 mph N/A   Clear
4:15 PM 53.6 °F - 17.6 °F 24% 30.23 in 10.0 mi NNW 24.2 mph 34.5 mph N/A   Clear
4:35 PM - - - N/A% 30.22 in 10.0 mi NW 26.5 mph 38.0 mph N/A   Clear
4:55 PM 53.6 °F - 17.6 °F 24% 30.22 in 10.0 mi NNW 25.3 mph 33.4 mph N/A   Clear
5:15 PM 53.6 °F - 17.6 °F 24% 30.23 in 10.0 mi NNW 24.2 mph 34.5 mph N/A   Clear
5:35 PM - - - N/A% 30.22 in 10.0 mi NW 25.3 mph 33.4 mph N/A   Clear
5:55 PM 51.8 °F - 15.8 °F 24% 30.23 in 10.0 mi NNW 21.9 mph 32.2 mph N/A   Clear
6:15 PM 51.8 °F - 15.8 °F 24% 30.23 in 10.0 mi NNW 26.5 mph 32.2 mph N/A   Clear
6:35 PM 51.8 °F - 15.8 °F 24% 30.23 in 10.0 mi NW 25.3 mph - N/A   Clear
6:55 PM 51.8 °F - 15.8 °F 24% 30.23 in 10.0 mi NNW 20.7 mph 26.5 mph N/A   Clear
7:15 PM 50.0 °F - 15.8 °F 26% 30.22 in 10.0 mi NNW 19.6 mph - N/A   Clear
7:35 PM 48.2 °F - 15.8 °F 27% 30.23 in 10.0 mi NNW 18.4 mph 26.5 mph N/A   Clear
7:55 PM 48.2 °F - 15.8 °F 27% 30.22 in 10.0 mi NW 20.7 mph - N/A   Clear
8:15 PM 46.4 °F 39.5 °F 15.8 °F 29% 30.22 in 10.0 mi NNW 17.3 mph 21.9 mph N/A   Clear
8:35 PM 46.4 °F 40.4 °F 15.8 °F 29% 30.23 in 10.0 mi NNW 13.8 mph - N/A   Clear
8:55 PM 44.6 °F 37.8 °F 15.8 °F 31% 30.23 in 10.0 mi NNW 15.0 mph - N/A   Clear
9:15 PM 44.6 °F 38.8 °F 17.6 °F 34% 30.23 in 10.0 mi NNW 11.5 mph - N/A   Clear
9:35 PM 42.8 °F 37.5 °F 17.6 °F 36% 30.23 in 10.0 mi NNW 9.2 mph - N/A   Clear
9:55 PM 41.0 °F 35.2 °F 17.6 °F 39% 30.24 in 10.0 mi NNW 9.2 mph - N/A   Clear
10:15 PM 39.2 °F 34.2 °F 19.4 °F 45% 30.24 in 10.0 mi NW 6.9 mph - N/A   Clear
10:35 PM 39.2 °F 33.6 °F 19.4 °F 45% 30.24 in 10.0 mi NW 8.1 mph - N/A   Clear
10:55 PM 37.4 °F 32.1 °F 19.4 °F 48% 30.24 in 10.0 mi NW 6.9 mph - N/A   Clear
11:15 PM 37.4 °F 31.4 °F 19.4 °F 48% 30.24 in 10.0 mi NW 8.1 mph - N/A   Clear
11:35 PM 35.6 °F 28.6 °F 19.4 °F 52% 30.24 in 10.0 mi NW 9.2 mph - N/A   Clear
11:55 PM 35.6 °F 29.2 °F 19.4 °F 52% 30.25 in 10.0 mi NW 8.1 mph - N/A   Clear